ロニオス彗星

P/2004 A1 ( LONEOS )

English version
Home page
Updated on January 20, 2013

---------------------------------------------------------------------

・ プロフィール

発見日 2004年1月13日
発見光度 18.4等
発見者 B. Skiff (LONEOS)

・ 軌道要素

Epoch 2004 Aug. 23.0 TT = JDT 2453240.5
T 2004 Aug. 25.84078 TT                                 MPC
q   5.4625300            (2000.0)            P               Q
n   0.04442124     Peri.   20.48509     -0.82154748     -0.55008028
a   7.8960325      Node   125.24595     +0.49421058     -0.81817960
e   0.3081931      Incl.   10.57680     +0.28428091     -0.16731356
P  22.2
From 471 observations 2003 Oct. 25-2007 Aug. 7, mean residual 0".6.

・ 星図

・ 光度変化

        m1 = -0.5 + 5 logΔ + 20 log r(t - 200)

---------------------------------------------------------------------

軌道要素はM.P.E.C. 2013-A29に掲載されたものです。
星図は StellaNavigator Ver.2.0 for Windows (アストロアーツ 編著 / アスキー出版局刊) で作成したものです。
光度グラフはComet for Windowsで作成したものです。

---------------------------------------------------------------------

Copyright(C) Seiichi Yoshida (comet@aerith.net). All rights reserved.